Flag for Canada Weather past 2 weeks in Pond Inlet, Nunavut Territory, Canada

Now
12 °F

Broken clouds.


Feels Like: -8 °F
Forecast: 7 / 12 °F
Wind: 25 mph from West

Location: Pond Inlet

Current Time: Oct 24, 2014 at 12:33:49 PM

Latest Report: Oct 24, 2014 at 12:00 PM


Visibility: 15 mi

Pressure: 29.98 "Hg

Humidity: 67%

Dew point: 3 °F

Location of Pond InletLocation

Historic Weather in Pond Inlet — Graph

°F

Pond Inlet temperature yesterday

Maximum temperature yesterday: 12 °F (at 6:00 PM)
Minimum temperature yesterday: 3 °F (at 12:00 AM)
Average temperature yesterday: 8 °F

Past Weeks' High & Low Weather Summary

 TemperatureHumidityPressure
High43 °F (Oct 11, 2:00 PM)93% (Oct 10, 3:00 AM)30.22 "Hg (Oct 10, 3:00 AM)
Low3 °F (Oct 22, 5:00 PM)57% (Oct 11, 2:00 PM)29.54 "Hg (Oct 11, 10:00 AM)
Average22 °F79%29.88 "Hg
* Reported Oct 9 11:00 AM — Oct 24 11:00 AM, Pond Inlet, Weather by CustomWeather, © 2014

Note: Actual official high and low records may vary slightly from our data, if they occured in-between our weather recording intervals... More about our weather records

Advertising

Pond Inlet weather history for previous 24 hours

 ConditionsComfort  
Time TempWeatherWind HumidityBarometerVisibility
11:00 AM
Oct 24
12 °FPartly sunny.25 mph67%29.98 "Hg15 mi
10:00 AM12 °FPassing clouds.32 mph62%29.97 "Hg9 mi
9:00 AM10 °FScattered clouds.26 mph67%29.97 "Hg9 mi
8:00 AM10 °FClear.25 mph67%29.97 "Hg9 mi
7:00 AM10 °FClear.23 mph72%29.97 "Hg9 mi
6:00 AM12 °FMostly cloudy.17 mph67%29.97 "Hg9 mi
5:00 AM12 °FOvercast.16 mph73%29.97 "Hg9 mi
4:00 AM12 °FPassing clouds.22 mph73%29.97 "Hg9 mi
3:00 AM12 °FClear.32 mph73%29.94 "Hg9 mi
2:00 AM12 °FClear.31 mph73%29.91 "Hg9 mi
1:00 AM12 °FClear.29 mph79%29.90 "Hg9 mi
12:00 AM12 °FPassing clouds.29 mph73%29.88 "Hg9 mi
11:00 PM
Oct 23
12 °FPassing clouds.31 mph79%29.87 "Hg9 mi
10:53 PM12 °FPassing clouds.33 mph79%29.87 "Hg9 mi
10:00 PM12 °FClear.22 mph79%29.86 "Hg9 mi
9:00 PM12 °FPassing clouds.23 mph79%29.84 "Hg9 mi
8:00 PM10 °FPassing clouds.21 mph79%29.83 "Hg9 mi
7:00 PM12 °FOvercast.14 mph73%29.81 "Hg15 mi
6:00 PM12 °FPartly cloudy.18 mph73%29.80 "Hg15 mi
5:00 PM10 °FPassing clouds.8 mph67%29.80 "Hg15 mi
4:00 PM10 °FPartly cloudy.13 mph67%29.78 "Hg20 mi
3:00 PM9 °FPartly sunny.24 mph85%29.78 "Hg20 mi
2:00 PM9 °FBroken clouds.26 mph72%29.77 "Hg15 mi
1:00 PM9 °FPartly sunny.32 mph72%29.76 "Hg15 mi
12:00 PM7 °FPartly sunny.31 mph78%29.75 "Hg15 mi
Weather by CustomWeather, © 2014

See weather overviewHow to use our weather pages